This is the latest recevied weather packets stored in our database for station/object N2UGS-WX. If no packets are shown the sender has not sent any weather packets the latest 10 day(s).
| Time | Temp. | Humidity | Pressure | Rain* | Wind** | Luminosity | Snow |
|---|---|---|---|---|---|---|---|
| 1777718702 | -0.56° C | 92% | 1015.6 hPa | 0 mm | - | - | - |
| 1777717802 | -0.56° C | 91% | 1015.6 hPa | 0 mm | - | - | - |
| 1777716903 | -0.56° C | 91% | 1015.6 hPa | 0 mm | - | - | - |
| 1777716002 | -0.56° C | 90% | 1015.2 hPa | 0 mm | - | - | - |
| 1777715102 | -0.56° C | 90% | 1015.2 hPa | 0 mm | - | - | - |
| 1777714203 | -0.56° C | 90% | 1015.6 hPa | 0 mm | - | - | - |
| 1777713303 | -0.56° C | 89% | 1015.2 hPa | 0 mm | - | - | - |
| 1777712402 | -0.56° C | 89% | 1015.2 hPa | 0 mm | - | - | - |
| 1777711741 | 0° C | 88% | 1015.2 hPa | 0 mm | - | - | - |
| 1777710842 | 0° C | 87% | 1014.9 hPa | 0 mm | - | - | - |
| 1777709942 | 0° C | 86% | 1014.9 hPa | 0 mm | - | - | - |
| 1777709342 | 0° C | 86% | 1014.9 hPa | 0 mm | - | - | - |
| 1777708442 | 0.56° C | 85% | 1014.9 hPa | 0 mm | - | - | - |
| 1777707542 | 0.56° C | 85% | 1014.6 hPa | 0 mm | - | - | - |
| 1777706643 | 0.56° C | 84% | 1014.9 hPa | 0 mm | - | - | - |
| 1777706042 | 1.11° C | 84% | 1014.9 hPa | 0 mm | - | - | - |
| 1777705203 | 1.11° C | 84% | 1014.9 hPa | 0 mm | - | - | - |
| 1777704542 | 1.11° C | 84% | 1014.9 hPa | 0 mm | - | - | - |
| 1777703702 | 1.11° C | 84% | 1015.2 hPa | 0 mm | - | - | - |
| 1777703042 | 1.11° C | 83% | 1014.9 hPa | 0 mm | - | - | - |
| 1777702442 | 1.11° C | 83% | 1014.9 hPa | 0 mm | - | - | - |
| 1777701543 | 1.67° C | 81% | 1015.2 hPa | 0 mm | - | - | - |
| 1777700702 | 1.67° C | 80% | 1015.2 hPa | 0 mm | - | - | - |
| 1777699803 | 2.22° C | 78% | 1015.2 hPa | 0 mm | - | - | - |
| 1777698902 | 2.78° C | 76% | 1014.9 hPa | 0 mm | - | - | - |
* Rain latest hour (hover to see other rain measurements)
** Current wind speed in m/s (hover to see current wind gust speed)